Weather History for Hot Springs, VA

Change the Weather History Date:

Sunday, January 20, 2002

  Actual Average Record
Temperature  
Mean Temperature 24 °F -  
Max Temperature 30 °F 29 °F 53 °F (2006)
Min Temperature 19 °F 16 °F 0 °F (2008)
Degree Days  
Heating Degree Days 40    
Moisture  
Dew Point 22 °F    
Average Humidity 94    
Maximum Humidity 100    
Minimum Humidity 74    
Precipitation  
Precipitation 0.00 in - - ()
Sea Level Pressure  
Sea Level Pressure 29.93 in    
Wind  
Wind Speed 11 mph (West)    
Max Wind Speed 22 mph    
Max Gust Speed 28 mph    
Visibility 7 miles    
Events      
Averages and records for this station are not official NWS values.
T = Trace of Precipitation, MM = Missing Value Source: NWS Daily Summary

Daily Weather History Graph

Daily Weather History Graph

Search for Another Location

Airport:

Trip Planner

Search our weather history database for the weather conditions in past years. The results will help you decide how hot, cold, wet, or windy it might be!

Date:

Astronomy

Jan. 20, 2002 Rise Set
Actual Time 7:31 AM EST 5:29 PM EST
Civil Twilight 7:03 AM EST 5:57 PM EST
Nautical Twilight 6:31 AM EST 6:29 PM EST
Astronomical Twilight 6:00 AM EST 7:01 PM EST
Moon 11:27 AM EST (1/20) No Moon Set
Length of Visible Light 10h 54m
Length of Day
9h 57m
Waxing Crescent, 40% of the Moon is Illuminated
Jan 20
Waxing Crescent
Jan 21
First Quarter
Jan 28
Full
Feb 4
Last Quarter
Feb 12
New

Hourly Weather History & Observations

Time (EST) Temp. Windchill Dew Point Humidity Pressure Visibility Wind Dir Wind Speed Gust Speed Precip Events Conditions
12:01 AM 24.8 °F 10.7 °F 24.8 °F 100% 29.74 in 5.0 mi WNW 19.6 mph 27.6 mph N/A   Overcast
12:21 AM 24.8 °F 10.0 °F 24.8 °F 100% 29.74 in 7.0 mi NW 21.9 mph 27.6 mph N/A   Overcast
12:41 AM 24.8 °F 10.7 °F 23.0 °F 93% 29.73 in 10.0 mi NW 19.6 mph 27.6 mph N/A   Overcast
1:01 AM 23.0 °F 9.6 °F 21.2 °F 93% 29.75 in 10.0 mi NW 16.1 mph 25.3 mph N/A   Overcast
1:21 AM 23.0 °F 9.6 °F 21.2 °F 93% 29.74 in 10.0 mi NW 16.1 mph 20.7 mph N/A   Mostly Cloudy
1:41 AM 23.0 °F 9.2 °F 21.2 °F 93% 29.76 in 10.0 mi NW 17.3 mph 26.5 mph N/A   Overcast
2:03 AM 23.0 °F 9.6 °F 21.2 °F 93% 29.79 in 10.0 mi NNW 16.1 mph 26.5 mph N/A   Overcast
2:21 AM 21.2 °F 7.8 °F 21.2 °F 100% 29.80 in 10.0 mi NW 15.0 mph 21.9 mph N/A   Overcast
2:41 AM 21.2 °F 7.8 °F 19.4 °F 93% 29.83 in 10.0 mi NW 15.0 mph 24.2 mph N/A   Overcast
3:03 AM 21.2 °F 8.9 °F 19.4 °F 93% 29.80 in 10.0 mi NW 12.7 mph 23.0 mph N/A   Overcast
3:21 AM 21.2 °F 9.5 °F 19.4 °F 93% 29.82 in 10.0 mi WNW 11.5 mph 21.9 mph N/A   Overcast
3:41 AM 21.2 °F 10.1 °F 19.4 °F 93% 29.84 in 7.0 mi NW 10.4 mph 18.4 mph N/A   Overcast
4:01 AM 21.2 °F 8.9 °F 19.4 °F 93% 29.85 in 7.0 mi NW 12.7 mph 20.7 mph N/A   Overcast
4:21 AM 21.2 °F 9.5 °F 19.4 °F 93% 29.85 in 7.0 mi NW 11.5 mph 18.4 mph N/A   Overcast
4:41 AM 19.4 °F 7.2 °F 17.6 °F 93% 29.86 in 7.0 mi NW 11.5 mph - N/A   Overcast
5:01 AM 19.4 °F 5.0 °F 19.4 °F 100% 29.87 in 7.0 mi NW 16.1 mph 20.7 mph N/A   Overcast
5:21 AM 19.4 °F 6.6 °F 17.6 °F 93% 29.88 in 7.0 mi WNW 12.7 mph 17.3 mph N/A   Overcast
5:41 AM 19.4 °F 10.4 °F 17.6 °F 93% 29.89 in 5.0 mi WNW 6.9 mph - N/A   Overcast
6:01 AM 19.4 °F 7.9 °F 17.6 °F 93% 29.90 in 7.0 mi WNW 10.4 mph - N/A   Overcast
6:21 AM 19.4 °F 7.9 °F 17.6 °F 93% 29.91 in 7.0 mi NNW 10.4 mph - N/A   Overcast
6:41 AM 19.4 °F 12.8 °F 17.6 °F 93% 29.93 in 10.0 mi WNW 4.6 mph - N/A   Overcast
7:01 AM 19.4 °F 12.8 °F 17.6 °F 93% 29.94 in 5.0 mi NW 4.6 mph - N/A   Overcast
7:21 AM 19.4 °F 12.8 °F 17.6 °F 93% 29.96 in 3.0 mi WNW 4.6 mph - N/A   Overcast
7:41 AM 19.4 °F 12.8 °F 19.4 °F 100% 29.98 in 0.2 mi West 4.6 mph - N/A   Overcast
8:01 AM 19.4 °F 14.3 °F 17.6 °F 93% 29.99 in 0.8 mi West 3.5 mph - N/A   Overcast
8:23 AM 19.4 °F 11.5 °F 17.6 °F 93% 30.00 in 2.0 mi West 5.8 mph - N/A   Overcast
8:41 AM 19.4 °F 11.5 °F 17.6 °F 93% 30.01 in 4.0 mi West 5.8 mph - N/A   Overcast
9:01 AM 19.4 °F 8.6 °F 19.4 °F 100% 30.01 in 2.0 mi WNW 9.2 mph - N/A   Overcast
9:21 AM 19.4 °F 5.5 °F 17.6 °F 93% 29.99 in 0.2 mi WNW 15.0 mph - N/A   Overcast
9:41 AM 19.4 °F 7.2 °F 19.4 °F 100% 29.99 in 0.2 mi WNW 11.5 mph - N/A   Overcast
10:01 AM 19.4 °F 8.6 °F 17.6 °F 93% 29.99 in 0.5 mi WNW 9.2 mph - N/A   Overcast
10:21 AM 21.2 °F - 19.4 °F 93% 30.00 in 0.8 mi Calm Calm - N/A   Overcast
10:41 AM 21.2 °F - 21.2 °F 100% 30.00 in 7.0 mi Calm Calm - N/A   Scattered Clouds
11:01 AM 23.0 °F - 23.0 °F 100% 30.02 in 10.0 mi Calm Calm - N/A   Clear
11:21 AM 23.0 °F - 23.0 °F 100% 30.02 in 10.0 mi Calm Calm - N/A   Clear
11:41 AM 24.8 °F - 24.8 °F 100% 30.01 in 2.5 mi Calm Calm - N/A   Scattered Clouds
12:01 PM 24.8 °F - 24.8 °F 100% 30.02 in 7.0 mi Calm Calm - N/A   Scattered Clouds
12:21 PM 26.6 °F - 26.6 °F 100% 30.02 in 3.0 mi Calm Calm - N/A   Mostly Cloudy
12:41 PM 26.6 °F - 26.6 °F 100% 30.02 in 1.5 mi Calm Calm - N/A   Overcast
1:04 PM 26.6 °F 21.2 °F 26.6 °F 100% 30.03 in 0.2 mi West 4.6 mph - N/A   Unknown
1:21 PM 26.6 °F 22.6 °F 24.8 °F 93% 30.03 in 1.0 mi West 3.5 mph - N/A   Overcast
1:41 PM 26.6 °F - 26.6 °F 100% 30.02 in 0.2 mi Calm Calm - N/A   Overcast
2:01 PM 26.6 °F - 26.6 °F 100% 30.01 in 0.2 mi Calm Calm - N/A   Overcast
2:21 PM 28.4 °F - 26.6 °F 93% 30.01 in 10.0 mi Calm Calm - N/A   Scattered Clouds
2:41 PM 28.4 °F 24.6 °F 28.4 °F 100% 30.00 in 10.0 mi South 3.5 mph - N/A   Clear
3:01 PM 28.4 °F 23.3 °F 26.6 °F 93% 30.00 in 10.0 mi SSE 4.6 mph - N/A   Clear
3:21 PM 28.4 °F 24.6 °F 26.6 °F 93% 30.01 in 7.0 mi South 3.5 mph - N/A   Clear
3:41 PM 30.2 °F 26.7 °F 28.4 °F 93% 30.00 in 10.0 mi SE 3.5 mph - N/A   Clear
4:01 PM 30.2 °F 24.3 °F 28.4 °F 93% 29.98 in 10.0 mi SE 5.8 mph - N/A   Clear
4:21 PM 28.4 °F 23.3 °F 24.8 °F 86% 29.99 in 7.0 mi South 4.6 mph - N/A   Clear
4:41 PM 26.6 °F 18.2 °F 24.8 °F 93% 29.99 in 10.0 mi South 8.1 mph - N/A   Clear
5:01 PM 26.6 °F 17.5 °F 24.8 °F 93% 29.97 in 10.0 mi South 9.2 mph - N/A   Clear
5:23 PM 26.6 °F 18.2 °F 23.0 °F 86% 30.00 in 10.0 mi South 8.1 mph - N/A   Clear
5:41 PM 24.8 °F 15.3 °F 21.2 °F 86% 29.97 in 10.0 mi South 9.2 mph - N/A   Clear
6:01 PM 24.8 °F 15.3 °F 21.2 °F 86% 29.98 in 10.0 mi South 9.2 mph - N/A   Clear
6:23 PM 26.6 °F 17.5 °F 21.2 °F 80% 29.98 in 10.0 mi South 9.2 mph - N/A   Clear
6:41 PM 26.6 °F 16.8 °F 19.4 °F 74% 29.98 in 10.0 mi South 10.4 mph - N/A   Clear
7:01 PM 26.6 °F 16.8 °F 19.4 °F 74% 29.97 in 10.0 mi South 10.4 mph - N/A   Clear
7:21 PM 26.6 °F 16.8 °F 21.2 °F 80% 29.95 in 10.0 mi South 10.4 mph - N/A   Clear
7:41 PM 26.6 °F 17.5 °F 21.2 °F 80% 29.96 in 10.0 mi South 9.2 mph - N/A   Clear
8:01 PM 24.8 °F 16.1 °F 21.2 °F 86% 29.98 in 10.0 mi SSW 8.1 mph - N/A   Clear
8:21 PM 24.8 °F 14.0 °F 21.2 °F 86% 29.97 in 10.0 mi South 11.5 mph - N/A   Clear
8:41 PM 24.8 °F 13.4 °F 21.2 °F 86% 29.95 in 10.0 mi South 12.7 mph - N/A   Clear
9:01 PM 24.8 °F 13.4 °F 23.0 °F 93% 29.97 in 10.0 mi South 12.7 mph 18.4 mph N/A   Clear
9:21 PM 24.8 °F 15.3 °F 24.8 °F 100% 29.96 in 10.0 mi SSW 9.2 mph - N/A   Clear
9:43 PM 24.8 °F 16.9 °F 24.8 °F 100% 29.96 in 5.0 mi SSW 6.9 mph - N/A   Mostly Cloudy
10:01 PM 24.8 °F 15.3 °F 24.8 °F 100% 29.95 in 5.0 mi SSW 9.2 mph - N/A   Scattered Clouds
10:21 PM 24.8 °F 14.0 °F 24.8 °F 100% 29.94 in 1.5 mi SSW 11.5 mph 17.3 mph N/A   Mostly Cloudy
10:41 PM 26.6 °F 16.8 °F 24.8 °F 93% 29.93 in 0.2 mi South 10.4 mph 16.1 mph N/A   Overcast
11:01 PM 26.6 °F 16.8 °F 26.6 °F 100% 29.94 in 0.2 mi South 10.4 mph - N/A   Overcast
11:23 PM 26.6 °F 16.2 °F 24.8 °F 93% 29.93 in 0.2 mi South 11.5 mph 16.1 mph N/A   Overcast
11:41 PM 26.6 °F 16.2 °F 26.6 °F 100% 29.93 in 0.2 mi South 11.5 mph - N/A   Overcast